Location: Aranbee
(34.0885°N, 118.2342°W)
Time: 00:20:02
(UTC+00:00)

A-11 Canister half - Pass Details

Date: 01 August 2021
Orbit: 1515 x 1685 km, 47.2° (Epoch: 22 September)

Event Time Altitude Azimuth Distance (km) Brightness Sun altitude
Rises 05:13:45 0° 300° (WNW) 4,889 12.9 -24.7°
Reaches altitude 10° 05:17:06 10° 306° (NW) 3,918 12.1 -25.2°
Maximum altitude 05:26:46 47° 19° (NNE) 2,116 9.8 -26.5°
Enters shadow 05:33:48 20° 84° (E) 3,215 10.4 -27.5°
